TimeCST,TemperatureF,Dew PointF,Humidity,Sea Level PressureIn,VisibilityMPH,Wind Direction,Wind SpeedMPH,Gust SpeedMPH,PrecipitationIn,Events,Conditions,WindDirDegrees,DateUTC
12:10 AM,26.6,19.4,74,30.53,10.0,North,26.5,31.1,N/A,,Overcast,350,2013-11-22 06:10:00
12:30 AM,26.6,17.6,69,30.53,10.0,North,20.7,27.6,N/A,,Overcast,360,2013-11-22 06:30:00
12:50 AM,24.8,19.4,80,30.54,10.0,North,24.2,31.1,N/A,,Overcast,360,2013-11-22 06:50:00
1:10 AM,24.8,17.6,74,30.55,10.0,North,20.7,31.1,N/A,,Overcast,360,2013-11-22 07:10:00
1:30 AM,24.8,17.6,74,30.55,10.0,North,17.3,31.1,N/A,,Overcast,360,2013-11-22 07:30:00
1:50 AM,24.8,17.6,74,30.54,10.0,North,24.2,31.1,N/A,,Overcast,360,2013-11-22 07:50:00
2:10 AM,24.8,17.6,74,30.55,10.0,North,17.3,29.9,N/A,,Overcast,360,2013-11-22 08:10:00
2:30 AM,24.8,17.6,74,30.54,10.0,North,26.5,32.2,N/A,,Overcast,360,2013-11-22 08:30:00
2:50 AM,24.8,17.6,74,30.55,10.0,North,18.4,26.5,N/A,,Overcast,360,2013-11-22 08:50:00
3:10 AM,24.8,15.8,69,30.54,10.0,North,21.9,29.9,N/A,,Overcast,360,2013-11-22 09:10:00
3:30 AM,24.8,17.6,74,30.56,10.0,North,16.1,29.9,N/A,,Overcast,360,2013-11-22 09:30:00
3:50 AM,24.8,17.6,74,30.56,10.0,North,17.3,26.5,N/A,,Overcast,350,2013-11-22 09:50:00
4:10 AM,24.8,15.8,69,30.56,10.0,North,19.6,24.2,N/A,,Overcast,360,2013-11-22 10:10:00
4:30 AM,24.8,15.8,69,30.57,10.0,North,17.3,-,N/A,,Overcast,360,2013-11-22 10:30:00
4:50 AM,24.8,15.8,69,30.56,10.0,North,19.6,31.1,N/A,,Overcast,360,2013-11-22 10:50:00
5:10 AM,24.8,15.8,69,30.56,10.0,North,18.4,24.2,N/A,,Overcast,360,2013-11-22 11:10:00
5:30 AM,24.8,15.8,69,30.56,10.0,North,19.6,27.6,N/A,,Overcast,10,2013-11-22 11:30:00
5:50 AM,24.8,17.6,74,30.58,10.0,North,17.3,21.9,N/A,,Overcast,360,2013-11-22 11:50:00
6:10 AM,24.8,17.6,74,30.58,10.0,North,19.6,-,N/A,,Overcast,10,2013-11-22 12:10:00
6:30 AM,26.6,17.6,69,30.58,10.0,North,17.3,25.3,N/A,,Overcast,360,2013-11-22 12:30:00
6:50 AM,24.8,15.8,69,30.58,10.0,North,21.9,28.8,N/A,,Overcast,10,2013-11-22 12:50:00
7:10 AM,24.8,15.8,69,30.58,10.0,North,23.0,28.8,N/A,,Mostly Cloudy,360,2013-11-22 13:10:00
7:30 AM,24.8,15.8,69,30.60,10.0,North,20.7,27.6,N/A,,Scattered Clouds,10,2013-11-22 13:30:00
7:50 AM,24.8,15.8,69,30.61,10.0,North,16.1,27.6,N/A,,Overcast,10,2013-11-22 13:50:00
8:10 AM,24.8,15.8,69,30.62,10.0,North,18.4,-,N/A,,Overcast,360,2013-11-22 14:10:00
8:30 AM,26.6,15.8,64,30.63,10.0,North,20.7,24.2,N/A,,Overcast,360,2013-11-22 14:30:00
8:50 AM,26.6,15.8,64,30.61,10.0,North,20.7,26.5,N/A,,Overcast,360,2013-11-22 14:50:00
9:10 AM,26.6,17.6,69,30.62,9.0,North,18.4,25.3,N/A,Rain,Freezing Rain,10,2013-11-22 15:10:00
9:30 AM,26.6,17.6,69,30.64,10.0,North,17.3,-,N/A,Rain,Freezing Rain,350,2013-11-22 15:30:00
9:50 AM,26.6,17.6,69,30.67,10.0,North,19.6,25.3,N/A,Rain,Freezing Rain,350,2013-11-22 15:50:00
10:10 AM,24.8,19.4,80,30.66,9.0,North,16.1,-,N/A,,Overcast,350,2013-11-22 16:10:00
10:30 AM,24.8,19.4,80,30.65,10.0,NNW,18.4,-,N/A,,Overcast,340,2013-11-22 16:30:00
10:50 AM,24.8,19.4,80,30.66,10.0,North,19.6,27.6,N/A,,Overcast,360,2013-11-22 16:50:00
11:10 AM,24.8,19.4,80,30.65,10.0,North,19.6,25.3,N/A,,Overcast,350,2013-11-22 17:10:00
11:30 AM,24.8,19.4,80,30.65,10.0,NNW,18.4,23.0,N/A,,Overcast,340,2013-11-22 17:30:00
11:50 AM,24.8,19.4,80,30.64,10.0,North,16.1,21.9,N/A,,Overcast,350,2013-11-22 17:50:00
12:10 PM,26.6,19.4,74,30.64,10.0,North,12.7,-,N/A,,Overcast,350,2013-11-22 18:10:00
12:30 PM,26.6,19.4,74,30.64,10.0,NNW,13.8,-,N/A,,Overcast,340,2013-11-22 18:30:00
12:50 PM,24.8,19.4,80,30.63,6.0,NNW,18.4,23.0,N/A,,Overcast,330,2013-11-22 18:50:00
1:10 PM,26.6,19.4,74,30.62,10.0,NNW,19.6,-,N/A,,Overcast,340,2013-11-22 19:10:00
1:30 PM,24.8,19.4,80,30.63,10.0,North,18.4,-,N/A,,Overcast,350,2013-11-22 19:30:00
1:50 PM,26.6,19.4,74,30.60,6.0,North,17.3,23.0,N/A,Rain,Freezing Rain,350,2013-11-22 19:50:00
2:10 PM,26.6,23.0,86,30.60,6.0,NNW,16.1,23.0,N/A,,Mostly Cloudy,340,2013-11-22 20:10:00
2:30 PM,26.6,21.2,80,30.60,10.0,NNW,18.4,26.5,N/A,,Overcast,340,2013-11-22 20:30:00
2:50 PM,28.4,19.4,69,30.59,10.0,North,16.1,20.7,N/A,,Overcast,350,2013-11-22 20:50:00
3:10 PM,28.4,19.4,69,30.59,10.0,North,18.4,23.0,N/A,,Overcast,350,2013-11-22 21:10:00
3:30 PM,28.4,17.6,64,30.59,10.0,North,15.0,18.4,N/A,,Overcast,360,2013-11-22 21:30:00
3:50 PM,28.4,15.8,59,30.60,10.0,North,12.7,-,N/A,,Overcast,350,2013-11-22 21:50:00
4:10 PM,28.4,14.0,55,30.60,10.0,North,17.3,-,N/A,,Overcast,350,2013-11-22 22:10:00
4:30 PM,30.2,14.0,51,30.60,10.0,North,15.0,23.0,N/A,,Overcast,360,2013-11-22 22:30:00
4:50 PM,30.2,14.0,51,30.59,10.0,North,17.3,20.7,N/A,,Overcast,10,2013-11-22 22:50:00
5:10 PM,30.2,14.0,51,30.60,10.0,North,12.7,-,N/A,,Overcast,10,2013-11-22 23:10:00
5:30 PM,28.4,12.2,51,30.59,10.0,North,15.0,-,N/A,,Overcast,360,2013-11-22 23:30:00
5:50 PM,28.4,12.2,51,30.59,10.0,North,15.0,18.4,N/A,,Overcast,360,2013-11-22 23:50:00
6:10 PM,30.2,14.0,51,30.59,10.0,North,11.5,18.4,N/A,,Overcast,10,2013-11-23 00:10:00
6:30 PM,30.2,14.0,51,30.59,10.0,North,10.4,-,N/A,,Overcast,360,2013-11-23 00:30:00
6:50 PM,30.2,14.0,51,30.59,10.0,North,12.7,17.3,N/A,,Overcast,360,2013-11-23 00:50:00
7:10 PM,30.2,14.0,51,30.60,10.0,North,11.5,-,N/A,,Overcast,360,2013-11-23 01:10:00
7:30 PM,30.2,12.2,47,30.60,10.0,North,12.7,-,N/A,,Overcast,360,2013-11-23 01:30:00
7:50 PM,30.2,12.2,47,30.59,10.0,North,12.7,-,N/A,,Overcast,360,2013-11-23 01:50:00
8:10 PM,30.2,12.2,47,30.60,10.0,North,15.0,-,N/A,,Overcast,360,2013-11-23 02:10:00
8:30 PM,30.2,12.2,47,30.60,10.0,North,16.1,-,N/A,,Overcast,10,2013-11-23 02:30:00
8:50 PM,30.2,14.0,51,30.60,10.0,North,15.0,-,N/A,,Overcast,360,2013-11-23 02:50:00
9:10 PM,30.2,14.0,51,30.61,10.0,North,12.7,-,N/A,Rain,Freezing Rain,360,2013-11-23 03:10:00
9:30 PM,30.2,14.0,51,30.62,10.0,North,13.8,-,N/A,,Overcast,360,2013-11-23 03:30:00
9:50 PM,30.2,14.0,51,30.61,10.0,North,13.8,-,N/A,,Overcast,10,2013-11-23 03:50:00
10:10 PM,32.0,14.0,48,30.62,10.0,North,12.7,16.1,N/A,,Mostly Cloudy,10,2013-11-23 04:10:00
10:30 PM,32.0,14.0,48,30.62,10.0,North,12.7,-,N/A,,Overcast,10,2013-11-23 04:30:00
10:50 PM,32.0,14.0,48,30.62,10.0,North,13.8,-,N/A,Rain,Light Rain,10,2013-11-23 04:50:00
11:10 PM,32.0,12.2,44,30.63,10.0,North,11.5,-,N/A,Rain,Light Rain,10,2013-11-23 05:10:00
11:30 PM,32.0,14.0,48,30.63,10.0,North,12.7,-,N/A,,Mostly Cloudy,360,2013-11-23 05:30:00
11:50 PM,32.0,14.0,48,30.63,10.0,North,12.7,-,N/A,Rain,Light Rain,360,2013-11-23 05:50:00